sat.trackr.live / text

‹ back to catalog

BANDWAGON-4 OBJECT P

NORAD 66306 · 2025-248P

PAYLOAD ACTIVE UNKNOWN

§ Identity

Operator
Country
TBD
Launch date
2025-11-02
Launch site
AFETR
Launch vehicle
Mass (kg)
RCS (m²)

External: N2YO · Heavens-Above · Gunter

§ Orbital elements

Epoch: 2026-05-24T08:08:55.454208Z

Period
94.33 min
Inclination
45.4025°
Eccentricity
0.0014288
Mean motion
15.26562025 rev/d
Perigee alt
476.3 km
Apogee alt
495.9 km
Semi-major
6,864.2 km
B*
4.8185e-4
RAAN
242.9061°
Arg perigee
287.5719°
Mean anomaly
72.3609°
Rev number
3,095

§ Raw data

BANDWAGON-4 OBJECT P1 66306U 25248P   26144.33953072  .00012588  00000+0  48185-3 0  99932 66306  45.4025 242.9061 0014288 287.5719  72.3609 15.26562025 30957

JSON: /api/v1/satellites/66306 · /tle

For live sub-satellite position, see the globe view (requires WebGL).

§ Visibility from observer

Set your observer location to see the next 7 days of passes ≥ 10°. The values pass through the URL so the page stays shareable.

No JS? Fill the form by hand. The geolocation button needs JavaScript.